Weather History for Mexico City Airport, Mexico

Change the Weather History Date:

Sunday, February 20, 2011

  Actual Average Record
Temperature  
Mean Temperature 64 °F -  
Max Temperature 84 °F 75 °F 84 °F (2011)
Min Temperature 44 °F 45 °F 39 °F (1998)
Degree Days  
Heating Degree Days 1    
Growing Degree Days 14 (Base 50)    
Moisture  
Dew Point 29 °F    
Average Humidity 34    
Maximum Humidity 71    
Minimum Humidity 8    
Precipitation  
Precipitation 0.00 in - - ()
Sea Level Pressure  
Sea Level Pressure 30.13 in    
Wind  
Wind Speed 4 mph ()    
Max Wind Speed 16 mph    
Max Gust Speed 22 mph    
Visibility 6.9 miles    
Events      
Averages and records for this station are not official NWS values.
T = Trace of Precipitation, MM = Missing Value Source: Averaged Metar Reports

Daily Weather History Graph

Daily Weather History Graph

Search for Another Location

Airport:

Trip Planner

Search our weather history database for the weather conditions in past years. The results will help you decide how hot, cold, wet, or windy it might be!

Date:

Astronomy

Feb. 20, 2011 Rise Set
Actual Time 7:02 AM CST 6:38 PM CST
Civil Twilight 6:39 AM CST 7:00 PM CST
Nautical Twilight 6:14 AM CST 7:26 PM CST
Astronomical Twilight 5:48 AM CST 7:51 PM CST
Moon 9:21 PM CST 8:31 AM CST
Length of Visible Light 12h 20m
Length of Day
11h 36m
Waning Gibbous, 92% of the Moon is Illuminated
Feb 20
Waning Gibbous
Feb 24
Last Quarter
Mar 4
New
Mar 12
First Quarter
Mar 19
Full

Hourly Weather History & Observations

Time (CST) Temp. Windchill Dew Point Humidity Pressure Visibility Wind Dir Wind Speed Gust Speed Precip Events Conditions
12:45 AM 59.0 °F - 35.6 °F 42% 30.30 in 8.0 mi WSW 4.6 mph - N/A   Clear
1:46 AM 57.2 °F - 37.4 °F 48% 30.29 in 8.0 mi West 5.8 mph - N/A   Clear
2:47 AM 50.0 °F - 35.6 °F 58% 30.27 in 8.0 mi NNE 5.8 mph - N/A   Clear
2:50 AM 48.2 °F - 35.6 °F 62% 29.82 in 8.0 mi NNE 5.8 mph - N/A   Clear
3:47 AM 44.6 °F 40.7 °F 35.6 °F 71% 30.27 in 8.0 mi NE 6.9 mph - N/A   Clear
4:45 AM 44.6 °F - 35.6 °F 71% 30.26 in 8.0 mi Calm Calm - N/A   Clear
5:51 AM 44.6 °F 43.1 °F 32.0 °F 61% 29.86 in 7.0 mi NE 3.5 mph - N/A   Clear
6:23 AM 44.6 °F - 30.2 °F 57% 30.26 in 7.0 mi Calm Calm - N/A   Clear
6:48 AM 44.6 °F - 30.2 °F 57% 30.26 in 7.0 mi Calm Calm - N/A   Clear
7:20 AM 46.4 °F - 30.2 °F 53% 30.27 in 7.0 mi Calm Calm - N/A   Clear
7:46 AM 48.2 °F - 32.0 °F 54% 30.29 in 7.0 mi NE 4.6 mph - N/A   Clear
8:20 AM 50.0 °F - 30.2 °F 47% 30.30 in 6.0 mi NE 5.8 mph - N/A   Clear
8:45 AM 51.8 °F - 30.2 °F 44% 29.92 in 6.0 mi NE 4.6 mph - N/A   Clear
9:00 AM 55.4 °F - 30.2 °F 38% 30.30 in 6.0 mi ENE 3.5 mph - N/A   Clear
9:21 AM 57.2 °F - 32.0 °F 38% 30.30 in 6.0 mi Calm Calm - N/A   Clear
9:43 AM 59.0 °F - 30.2 °F 34% 30.30 in 6.0 mi NE 3.5 mph - N/A   Clear
10:09 AM 62.6 °F - 32.0 °F 32% 30.30 in 6.0 mi East 3.5 mph - N/A   Clear
10:45 AM 64.4 °F - 32.0 °F 30% 30.30 in 5.0 mi Calm Calm - N/A   Clear
11:10 AM 68.0 °F - 30.2 °F 24% 30.29 in 5.0 mi Calm Calm - N/A   Clear
11:44 AM 71.6 °F - 28.4 °F 20% 30.27 in 5.0 mi Calm Calm - N/A   Clear
11:45 AM 71.6 °F - 28.4 °F 20% 29.78 in 5.0 mi Calm Calm - N/A   Clear
12:28 PM 75.2 °F - 21.2 °F 13% 30.23 in 6.0 mi NNW 4.6 mph - N/A   Clear
12:46 PM 75.2 °F - 21.2 °F 13% 30.23 in 6.0 mi Calm Calm - N/A   Clear
1:43 PM 77.0 °F - 17.6 °F 11% 30.18 in 6.0 mi North 5.8 mph - N/A   Clear
2:47 PM 78.8 °F - 17.6 °F 10% 29.68 in 6.0 mi Calm Calm - N/A   Clear
3:42 PM 84.2 °F - 15.8 °F 8% 30.11 in 6.0 mi SE 3.5 mph - N/A   Clear
4:29 PM 78.8 °F - 15.8 °F 9% 30.11 in 6.0 mi SE 3.5 mph - N/A   Clear
4:40 PM 78.8 °F - 19.4 °F 11% 30.10 in 6.0 mi East 6.9 mph - N/A   Clear
5:46 PM 75.2 °F - 30.2 °F 19% 30.10 in 6.0 mi ESE 13.8 mph - N/A   Clear
5:49 PM 75.2 °F - 30.2 °F 19% 29.69 in 6.0 mi ESE 13.8 mph - N/A   Clear
6:43 PM 71.6 °F - 32.0 °F 23% 30.12 in 6.0 mi ESE 16.1 mph - N/A   Clear
7:26 PM 68.0 °F - 32.0 °F 26% 30.14 in 8.0 mi SSE 8.1 mph 19.6 mph N/A   Clear
7:43 PM 66.2 °F - 32.0 °F 28% 30.15 in 8.0 mi South 10.4 mph - N/A   Clear
8:48 PM 64.4 °F - 32.0 °F 30% 29.79 in 10.0 mi SSE 8.1 mph - N/A   Clear
9:45 PM 64.4 °F - 30.2 °F 28% 30.20 in 10.0 mi SE 10.4 mph 21.9 mph N/A   Clear
10:45 PM 62.6 °F - 32.0 °F 32% 30.20 in 10.0 mi ENE 3.5 mph - N/A   Clear
11:51 PM 60.8 °F - 32.0 °F 34% 29.68 in 10.0 mi Calm Calm - N/A   Clear